Time,TemperatureF,DewpointF,PressureIn,WindDirection,WindDirectionDegrees,WindSpeedMPH,WindSpeedGustMPH,Humidity,HourlyPrecipIn,Conditions,Clouds,dailyrainin,SolarRadiationWatts/m^2,SoftwareType,DateUTC
2013-07-14 00:00:00,71.9,68.0,30.21,ESE,115,1.0,-999.0,88,-99.99,,,0.00,0,weatherlink.com 1.10,2013-07-14 04:00:00,
2013-07-14 00:15:00,72.1,69.0,30.22,ESE,115,0.0,-999.0,89,-99.99,,,0.00,0,weatherlink.com 1.10,2013-07-14 04:15:00,
2013-07-14 00:30:00,72.5,69.0,30.22,ESE,115,0.0,-999.0,88,-99.99,,,0.00,0,weatherlink.com 1.10,2013-07-14 04:30:00,
2013-07-14 00:45:00,72.3,69.0,30.22,ESE,115,0.0,-999.0,88,-99.99,,,0.00,0,weatherlink.com 1.10,2013-07-14 04:45:00,
2013-07-14 01:00:00,71.7,68.0,30.23,ESE,115,0.0,-999.0,88,-99.99,,,0.00,0,weatherlink.com 1.10,2013-07-14 05:00:00,
2013-07-14 01:15:00,71.0,68.0,30.22,ESE,115,0.0,-999.0,89,-99.99,,,0.00,0,weatherlink.com 1.10,2013-07-14 05:15:00,
2013-07-14 01:30:00,70.5,68.0,30.22,ESE,115,0.0,-999.0,90,-99.99,,,0.00,0,weatherlink.com 1.10,2013-07-14 05:30:00,
2013-07-14 01:45:00,69.8,67.0,30.22,ESE,115,1.0,-999.0,91,-99.99,,,0.00,0,weatherlink.com 1.10,2013-07-14 05:45:00,
2013-07-14 02:00:00,69.4,67.0,30.23,ESE,115,0.0,-999.0,91,-99.99,,,0.00,0,weatherlink.com 1.10,2013-07-14 06:00:00,
2013-07-14 02:15:00,69.2,67.0,30.23,ESE,115,0.0,-999.0,92,-99.99,,,0.00,0,weatherlink.com 1.10,2013-07-14 06:15:00,
2013-07-14 02:30:00,69.0,67.0,30.23,ESE,115,0.0,-999.0,92,-99.99,,,0.00,0,weatherlink.com 1.10,2013-07-14 06:30:00,
2013-07-14 02:45:00,68.6,66.0,30.23,ESE,115,0.0,-999.0,92,-99.99,,,0.00,0,weatherlink.com 1.10,2013-07-14 06:45:00,
2013-07-14 03:00:00,68.5,66.0,30.23,ESE,115,0.0,-999.0,92,-99.99,,,0.00,0,weatherlink.com 1.10,2013-07-14 07:00:00,
2013-07-14 03:15:00,68.3,66.0,30.23,ESE,115,0.0,-999.0,92,-99.99,,,0.00,0,weatherlink.com 1.10,2013-07-14 07:15:00,
2013-07-14 03:30:00,68.2,66.0,30.23,ESE,115,0.0,-999.0,93,-99.99,,,0.00,0,weatherlink.com 1.10,2013-07-14 07:30:00,
2013-07-14 03:45:00,68.0,66.0,30.24,ESE,115,0.0,-999.0,93,-99.99,,,0.00,0,weatherlink.com 1.10,2013-07-14 07:45:00,
2013-07-14 04:00:00,67.9,66.0,30.24,ESE,115,0.0,-999.0,93,-99.99,,,0.00,0,weatherlink.com 1.10,2013-07-14 08:00:00,
2013-07-14 04:15:00,67.7,66.0,30.24,ESE,115,0.0,-999.0,93,-99.99,,,0.00,0,weatherlink.com 1.10,2013-07-14 08:15:00,
2013-07-14 04:30:00,67.5,66.0,30.24,ESE,115,0.0,-999.0,94,-99.99,,,0.00,0,weatherlink.com 1.10,2013-07-14 08:30:00,
2013-07-14 04:45:00,67.4,66.0,30.24,ESE,115,0.0,-999.0,94,-99.99,,,0.00,0,weatherlink.com 1.10,2013-07-14 08:45:00,
2013-07-14 05:00:00,67.0,65.0,30.25,ESE,115,0.0,-999.0,94,-99.99,,,0.00,0,weatherlink.com 1.10,2013-07-14 09:00:00,
2013-07-14 05:15:00,67.0,65.0,30.25,ESE,115,0.0,-999.0,94,-99.99,,,0.00,0,weatherlink.com 1.10,2013-07-14 09:15:00,
2013-07-14 05:30:00,66.7,65.0,30.25,ESE,115,0.0,-999.0,94,-99.99,,,0.00,0,weatherlink.com 1.10,2013-07-14 09:30:00,
2013-07-14 05:46:00,67.0,66.0,30.25,ESE,115,0.0,-999.0,95,-99.99,,,0.00,0,weatherlink.com 1.10,2013-07-14 09:46:00,
2013-07-14 06:01:00,67.3,66.0,30.26,ESE,115,0.0,-999.0,95,-99.99,,,0.00,9,weatherlink.com 1.10,2013-07-14 10:01:00,
2013-07-14 06:16:00,67.2,66.0,30.26,ESE,115,0.0,-999.0,95,-99.99,,,0.00,14,weatherlink.com 1.10,2013-07-14 10:16:00,
2013-07-14 06:31:00,67.2,66.0,30.27,ESE,115,0.0,-999.0,95,-99.99,,,0.00,21,weatherlink.com 1.10,2013-07-14 10:31:00,
2013-07-14 06:46:00,67.0,66.0,30.27,ESE,115,2.0,-999.0,95,-99.99,,,0.00,30,weatherlink.com 1.10,2013-07-14 10:46:00,
2013-07-14 07:01:00,68.4,67.0,30.27,ESE,115,0.0,-999.0,96,-99.99,,,0.00,37,weatherlink.com 1.10,2013-07-14 11:01:00,
2013-07-14 07:16:00,69.5,68.0,30.28,ESE,115,1.0,-999.0,96,-99.99,,,0.00,54,weatherlink.com 1.10,2013-07-14 11:16:00,
2013-07-14 07:31:00,70.8,69.0,30.28,ESE,115,4.0,-999.0,95,-99.99,,,0.00,67,weatherlink.com 1.10,2013-07-14 11:31:00,
2013-07-14 07:46:00,72.2,70.0,30.28,ESE,115,5.0,-999.0,93,-99.99,,,0.00,174,weatherlink.com 1.10,2013-07-14 11:46:00,
2013-07-14 08:01:00,74.0,71.0,30.28,ESE,115,0.0,-999.0,90,-99.99,,,0.00,299,weatherlink.com 1.10,2013-07-14 12:01:00,
2013-07-14 08:16:00,75.6,71.0,30.28,ESE,115,4.0,-999.0,86,-99.99,,,0.00,348,weatherlink.com 1.10,2013-07-14 12:16:00,
2013-07-14 08:31:00,76.4,71.0,30.28,ESE,114,2.0,-999.0,84,-99.99,,,0.00,394,weatherlink.com 1.10,2013-07-14 12:31:00,
2013-07-14 08:46:00,77.2,71.0,30.28,ESE,113,1.0,-999.0,82,-99.99,,,0.00,436,weatherlink.com 1.10,2013-07-14 12:46:00,
2013-07-14 09:01:00,78.7,72.0,30.28,ESE,117,4.0,-999.0,80,-99.99,,,0.00,482,weatherlink.com 1.10,2013-07-14 13:01:00,
2013-07-14 09:16:00,79.0,72.0,30.27,SE,130,1.0,-999.0,78,-99.99,,,0.00,522,weatherlink.com 1.10,2013-07-14 13:16:00,
2013-07-14 09:31:00,80.8,73.0,30.27,SSW,193,4.0,-999.0,76,-99.99,,,0.00,559,weatherlink.com 1.10,2013-07-14 13:31:00,
2013-07-14 09:46:00,82.2,73.0,30.27,South,169,1.0,-999.0,73,-99.99,,,0.00,561,weatherlink.com 1.10,2013-07-14 13:46:00,
2013-07-14 10:01:00,83.0,73.0,30.27,South,173,4.0,-999.0,71,-99.99,,,0.00,211,weatherlink.com 1.10,2013-07-14 14:01:00,
2013-07-14 10:17:00,83.9,72.0,30.27,SSW,213,1.0,-999.0,68,-99.99,,,0.00,749,weatherlink.com 1.10,2013-07-14 14:17:00,
2013-07-14 10:32:00,84.1,72.0,30.27,West,271,2.0,-999.0,67,-99.99,,,0.00,731,weatherlink.com 1.10,2013-07-14 14:32:00,
2013-07-14 10:47:00,85.1,72.0,30.27,SW,220,4.0,-999.0,65,-99.99,,,0.00,791,weatherlink.com 1.10,2013-07-14 14:47:00,
2013-07-14 11:02:00,86.2,73.0,30.26,SW,234,2.0,-999.0,64,-99.99,,,0.00,805,weatherlink.com 1.10,2013-07-14 15:02:00,
2013-07-14 11:17:00,86.3,71.0,30.26,WSW,242,3.0,-999.0,61,-99.99,,,0.00,819,weatherlink.com 1.10,2013-07-14 15:17:00,
2013-07-14 11:32:00,86.2,72.0,30.26,SSW,210,1.0,-999.0,62,-99.99,,,0.00,178,weatherlink.com 1.10,2013-07-14 15:32:00,
2013-07-14 11:47:00,85.5,71.0,30.27,South,174,0.0,-999.0,63,-99.99,,,0.00,865,weatherlink.com 1.10,2013-07-14 15:47:00,
2013-07-14 12:02:00,87.2,72.0,30.26,South,182,1.0,-999.0,61,-99.99,,,0.00,257,weatherlink.com 1.10,2013-07-14 16:02:00,
2013-07-14 12:17:00,86.6,72.0,30.26,SSW,196,2.0,-999.0,61,-99.99,,,0.00,953,weatherlink.com 1.10,2013-07-14 16:17:00,
2013-07-14 12:32:00,87.3,72.0,30.26,SSE,159,0.0,-999.0,60,-99.99,,,0.00,942,weatherlink.com 1.10,2013-07-14 16:32:00,
2013-07-14 12:47:00,88.4,72.0,30.25,South,181,0.0,-999.0,59,-99.99,,,0.00,1067,weatherlink.com 1.10,2013-07-14 16:47:00,
2013-07-14 13:02:00,89.7,71.0,30.25,WSW,237,2.0,-999.0,55,-99.99,,,0.00,1102,weatherlink.com 1.10,2013-07-14 17:02:00,
2013-07-14 13:17:00,89.5,72.0,30.24,West,271,0.0,-999.0,57,-99.99,,,0.00,1083,weatherlink.com 1.10,2013-07-14 17:17:00,
2013-07-14 13:32:00,89.2,71.0,30.25,West,265,1.0,-999.0,55,-99.99,,,0.00,652,weatherlink.com 1.10,2013-07-14 17:32:00,
2013-07-14 13:47:00,90.0,72.0,30.24,SW,230,5.0,-999.0,55,-99.99,,,0.00,1004,weatherlink.com 1.10,2013-07-14 17:47:00,
2013-07-14 14:02:00,91.2,72.0,30.24,West,262,2.0,-999.0,54,-99.99,,,0.00,1056,weatherlink.com 1.10,2013-07-14 18:02:00,
2013-07-14 14:17:00,90.2,71.0,30.24,SE,126,0.0,-999.0,54,-99.99,,,0.00,954,weatherlink.com 1.10,2013-07-14 18:17:00,
2013-07-14 14:32:00,91.9,72.0,30.23,SW,214,6.0,-999.0,53,-99.99,,,0.00,918,weatherlink.com 1.10,2013-07-14 18:32:00,
2013-07-14 14:47:00,92.0,72.0,30.23,SW,220,2.0,-999.0,52,-99.99,,,0.00,956,weatherlink.com 1.10,2013-07-14 18:47:00,
2013-07-14 15:02:00,92.3,72.0,30.23,WSW,244,2.0,-999.0,52,-99.99,,,0.00,165,weatherlink.com 1.10,2013-07-14 19:02:00,
2013-07-14 15:17:00,91.9,72.0,30.22,WSW,244,1.0,-999.0,52,-99.99,,,0.00,299,weatherlink.com 1.10,2013-07-14 19:17:00,
2013-07-14 15:32:00,90.2,71.0,30.22,SSW,206,3.0,-999.0,54,-99.99,,,0.00,726,weatherlink.com 1.10,2013-07-14 19:32:00,
2013-07-14 15:47:00,90.8,71.0,30.21,West,277,2.0,-999.0,53,-99.99,,,0.00,773,weatherlink.com 1.10,2013-07-14 19:47:00,
2013-07-14 16:02:00,91.2,71.0,30.21,West,265,2.0,-999.0,52,-99.99,,,0.00,738,weatherlink.com 1.10,2013-07-14 20:02:00,
2013-07-14 16:17:00,91.4,75.0,30.21,NW,315,7.0,-999.0,59,-99.99,,,0.00,703,weatherlink.com 1.10,2013-07-14 20:17:00,
2013-07-14 16:32:00,89.5,75.0,30.21,NW,313,8.0,-999.0,63,-99.99,,,0.00,666,weatherlink.com 1.10,2013-07-14 20:32:00,
2013-07-14 16:47:00,88.0,74.0,30.20,NNE,32,5.0,-999.0,64,-99.99,,,0.00,621,weatherlink.com 1.10,2013-07-14 20:47:00,
2013-07-14 17:02:00,87.8,75.0,30.20,North,360,5.0,-999.0,65,-99.99,,,0.00,577,weatherlink.com 1.10,2013-07-14 21:02:00,
2013-07-14 17:17:00,86.8,74.0,30.20,NNE,29,6.0,-999.0,66,-99.99,,,0.00,534,weatherlink.com 1.10,2013-07-14 21:17:00,
2013-07-14 17:32:00,86.2,74.0,30.20,North,360,4.0,-999.0,67,-99.99,,,0.00,487,weatherlink.com 1.10,2013-07-14 21:32:00,
2013-07-14 17:47:00,86.2,74.0,30.20,NNW,328,9.0,-999.0,67,-99.99,,,0.00,434,weatherlink.com 1.10,2013-07-14 21:47:00,
2013-07-14 18:02:00,85.7,74.0,30.20,NW,315,5.0,-999.0,67,-99.99,,,0.00,390,weatherlink.com 1.10,2013-07-14 22:02:00,
2013-07-14 18:17:00,85.0,73.0,30.20,North,350,6.0,-999.0,67,-99.99,,,0.00,334,weatherlink.com 1.10,2013-07-14 22:17:00,
2013-07-14 18:32:00,83.9,72.0,30.20,NNW,344,5.0,-999.0,67,-99.99,,,0.00,292,weatherlink.com 1.10,2013-07-14 22:32:00,
2013-07-14 18:47:00,83.6,72.0,30.20,NNW,345,6.0,-999.0,68,-99.99,,,0.00,264,weatherlink.com 1.10,2013-07-14 22:47:00,
2013-07-14 19:02:00,83.3,72.0,30.20,NNW,333,5.0,-999.0,69,-99.99,,,0.00,213,weatherlink.com 1.10,2013-07-14 23:02:00,
2013-07-14 19:17:00,83.0,72.0,30.20,NNW,330,4.0,-999.0,69,-99.99,,,0.00,169,weatherlink.com 1.10,2013-07-14 23:17:00,
2013-07-14 19:32:00,83.0,72.0,30.20,NNW,329,2.0,-999.0,69,-99.99,,,0.00,120,weatherlink.com 1.10,2013-07-14 23:32:00,
2013-07-14 19:47:00,82.3,71.0,30.20,NNW,346,2.0,-999.0,69,-99.99,,,0.00,83,weatherlink.com 1.10,2013-07-14 23:47:00,
2013-07-14 20:02:00,81.6,71.0,30.20,NNW,348,5.0,-999.0,71,-99.99,,,0.00,49,weatherlink.com 1.10,2013-07-15 00:02:00,
2013-07-14 20:17:00,81.2,71.0,30.20,NNW,348,0.0,-999.0,72,-99.99,,,0.00,21,weatherlink.com 1.10,2013-07-15 00:17:00,
2013-07-14 20:32:00,80.7,71.0,30.20,NNW,348,0.0,-999.0,72,-99.99,,,0.00,11,weatherlink.com 1.10,2013-07-15 00:32:00,
2013-07-14 20:47:00,80.3,71.0,30.21,NNW,348,0.0,-999.0,72,-99.99,,,0.00,0,weatherlink.com 1.10,2013-07-15 00:47:00,
2013-07-14 21:02:00,79.7,71.0,30.20,NNW,348,0.0,-999.0,75,-99.99,,,0.00,0,weatherlink.com 1.10,2013-07-15 01:02:00,
2013-07-14 21:17:00,79.1,71.0,30.21,NNW,348,0.0,-999.0,75,-99.99,,,0.00,0,weatherlink.com 1.10,2013-07-15 01:17:00,
2013-07-14 21:32:00,78.4,70.0,30.21,NNW,348,0.0,-999.0,76,-99.99,,,0.00,0,weatherlink.com 1.10,2013-07-15 01:32:00,
2013-07-14 21:47:00,77.8,70.0,30.21,NNW,348,0.0,-999.0,77,-99.99,,,0.00,0,weatherlink.com 1.10,2013-07-15 01:47:00,
2013-07-14 22:02:00,77.0,70.0,30.21,NNW,348,0.0,-999.0,78,-99.99,,,0.00,0,weatherlink.com 1.10,2013-07-15 02:02:00,
2013-07-14 22:17:00,76.4,69.0,30.21,NNW,348,0.0,-999.0,79,-99.99,,,0.00,0,weatherlink.com 1.10,2013-07-15 02:17:00,
2013-07-14 22:32:00,75.9,69.0,30.22,NNW,348,0.0,-999.0,79,-99.99,,,0.00,0,weatherlink.com 1.10,2013-07-15 02:32:00,
2013-07-14 22:47:00,75.4,69.0,30.21,NNW,348,0.0,-999.0,80,-99.99,,,0.00,0,weatherlink.com 1.10,2013-07-15 02:47:00,
2013-07-14 23:02:00,75.0,69.0,30.21,NNW,348,0.0,-999.0,82,-99.99,,,0.00,0,weatherlink.com 1.10,2013-07-15 03:02:00,
2013-07-14 23:17:00,74.6,69.0,30.22,NNW,348,0.0,-999.0,82,-99.99,,,0.00,0,weatherlink.com 1.10,2013-07-15 03:17:00,
2013-07-14 23:32:00,74.7,69.0,30.22,NNW,348,0.0,-999.0,83,-99.99,,,0.00,0,weatherlink.com 1.10,2013-07-15 03:32:00,
2013-07-14 23:47:00,74.6,70.0,30.21,NNW,348,0.0,-999.0,84,-99.99,,,0.00,0,weatherlink.com 1.10,2013-07-15 03:47:00,